Weather History for MMIO - November, 2012

Change the Weather History Date:

Saturday, November 3, 2012

  Actual Average Record
Temperature  
Mean Temperature 60 °F -  
Max Temperature 74 °F 71 °F 84 °F (2005)
Min Temperature 47 °F 52 °F 41 °F (1999)
Degree Days  
Heating Degree Days 4    
Growing Degree Days 10 (Base 50)    
Moisture  
Dew Point 47 °F    
Average Humidity 50    
Maximum Humidity 82    
Minimum Humidity 25    
Precipitation  
Precipitation 0.00 in - - ()
Sea Level Pressure  
Sea Level Pressure 30.07 in    
Wind  
Wind Speed 6 mph ()    
Max Wind Speed 14 mph    
Max Gust Speed -    
Visibility 9.0 miles    
Events      
Averages and records for this station are not official NWS values.
T = Trace of Precipitation, MM = Missing Value Source: Averaged Metar Reports

Daily Weather History Graph

Daily Weather History Graph

Search for Another Location

Airport or City:

Trip Planner

Search our weather history database for the weather conditions in past years. The results will help you decide how hot, cold, wet, or windy it might be!

Date:

Astronomy

Nov. 03, 2012 Rise Set
Actual Time 6:53 AM CST 6:00 PM CST
Civil Twilight 6:29 AM CST 6:24 PM CST
Nautical Twilight 6:02 AM CST 6:51 PM CST
Astronomical Twilight 5:35 AM CST 7:18 PM CST
Moon 9:52 PM CST (11/3) 10:49 AM CST (11/3)
Length of Visible Light 11h 54m
Length of Day
11h 07m
Waning Gibbous, 80% of the Moon is Illuminated
Nov 3
Waning Gibbous
Nov 6
Last Quarter
Nov 13
New
Nov 20
First Quarter
Nov 28
Full

Hourly Weather History & Observations

Time (CST) Temp. Heat Index Dew Point Humidity Pressure Visibility Wind Dir Wind Speed Gust Speed Precip Events Conditions
12:40 AM 60.8 °F - 48.2 °F 63% 30.12 in 10.0 mi Calm Calm - N/A   Clear
1:40 AM 59.0 °F - 48.2 °F 67% 30.10 in 10.0 mi South 5.8 mph - N/A   Clear
2:40 AM 55 °F - 36 °F 37% 29.92 in 3 mi WSW 6.7 mph - -   Haze
2:40 AM 57.2 °F - 46.4 °F 67% 30.10 in 10.0 mi South 6.9 mph - N/A   Clear
3:40 AM 57.2 °F - 46.4 °F 67% 30.10 in 10.0 mi South 6.9 mph - N/A   Clear
5:35 AM 51 °F - 38 °F 51% 30.00 in 3 mi SSW 8.9 mph - -   Clear
5:40 AM 57.2 °F - 51.8 °F 82% 30.14 in 10.0 mi Calm Calm - N/A   Clear
6:40 AM 57.2 °F - 51.8 °F 82% 30.15 in 10.0 mi Calm Calm - N/A   Clear
7:40 AM 60.8 °F - 41.0 °F 48% 30.17 in 10.0 mi Calm Calm - N/A   Clear
8:30 AM 54 °F - 40 °F 47% 30.02 in 11 mi WSW 8.9 mph - -   Haze
8:40 AM 68.0 °F - 48.2 °F 49% 30.18 in 10.0 mi Calm Calm - N/A   Clear
9:40 AM 75.2 °F - 46.4 °F 36% 30.16 in 10.0 mi Calm Calm - N/A   Clear
10:40 AM 78.8 °F - 50.0 °F 36% 30.17 in 10.0 mi North 6.9 mph - N/A   Clear
11:30 AM 72 °F - 46 °F 28% 29.99 in 11 mi SSE 11.2 mph - -   Haze
11:40 AM 80.6 °F 80.3 °F 53.6 °F 39% 30.15 in 10.0 mi NE 13.8 mph - N/A   Scattered Clouds
12:40 PM 80.6 °F - 46.4 °F 30% 30.10 in 10.0 mi NNE 13.8 mph - N/A   Scattered Clouds
1:40 PM 78.8 °F - 46.4 °F 32% 30.09 in 10.0 mi NE 12.7 mph - N/A   Scattered Clouds
2:30 PM 71 °F - 43 °F 25% 29.89 in 11 mi East 11.2 mph - -   Haze
2:40 PM 75.2 °F - 50.0 °F 41% 30.08 in 10.0 mi North 11.5 mph - N/A   Mostly Cloudy
3:40 PM 73.4 °F - 50.0 °F 44% 30.07 in 10.0 mi NNE 13.8 mph - N/A   Mostly Cloudy
4:40 PM 73.4 °F - 50.0 °F 44% 30.06 in 10.0 mi NNE 13.8 mph - N/A   Mostly Cloudy
5:30 PM 68 °F - 41 °F 26% 29.85 in 7 mi ENE 11.2 mph - -   Haze
5:40 PM 68.0 °F - 53.6 °F 60% 30.08 in 10.0 mi NNE 13.8 mph - N/A   Scattered Clouds
6:40 PM 66.2 °F - 51.8 °F 60% 30.10 in 10.0 mi NNE 11.5 mph - N/A   Scattered Clouds
7:40 PM 64.4 °F - 48.2 °F 56% 30.12 in 10.0 mi NNE 9.2 mph - N/A   Clear
8:30 PM 54 °F - 41 °F 50% 29.88 in 3 mi South 6.7 mph - -   Haze
8:40 PM 64.4 °F - 48.2 °F 56% 30.14 in 10.0 mi NNE 9.2 mph - N/A   Clear
11:30 PM 50 °F - 42 °F 65% 29.94 in 3 mi SSW 6.7 mph - -   Haze